contact:dominique.lefevre@mio.osupytheas.fr, maurice.libes@osupytheas.fr, didier.mallarino@osupytheas.fr
Project:EMSO http://www.emso-fr.org/EMSO-France
Depth: 2436.0 m
Title:EMSO Ligure Ouest : Data MII capteur MICROCAT
DateTime_Computer,Latitude,Longitude,Temperature,Conductivity,Pressure,DateTime_Instrument
DateTime_Computer,Latitude,Longitude,degC,S m-1,dbar,DateTime_Instrument
2023-09-01T00:00:31Z,42.805,6.029,13.3029,4.60093,2470.787,2023-9-01T02:02:51Z
2023-09-01T00:03:34Z,42.805,6.029,13.3026,4.60095,2470.754,2023-9-01T02:05:55Z
2023-09-01T00:06:37Z,42.805,6.029,13.3030,4.60092,2470.763,2023-9-01T02:08:58Z
2023-09-01T00:09:40Z,42.805,6.029,13.3031,4.60097,2470.763,2023-9-01T02:12:01Z
2023-09-01T00:12:43Z,42.805,6.029,13.3027,4.60093,2470.754,2023-9-01T02:15:04Z
2023-09-01T00:15:46Z,42.805,6.029,13.3028,4.60099,2470.74,2023-9-01T02:18:07Z
2023-09-01T00:18:49Z,42.805,6.029,13.3029,4.60095,2470.717,2023-9-01T02:21:10Z
2023-09-01T00:21:52Z,42.805,6.029,13.3030,4.60099,2470.763,2023-9-01T02:24:13Z
2023-09-01T00:24:55Z,42.805,6.029,13.3032,4.60096,2470.74,2023-9-01T02:27:16Z
2023-09-01T00:27:58Z,42.805,6.029,13.3029,4.60095,2470.74,2023-9-01T02:30:19Z
2023-09-01T00:31:01Z,42.805,6.029,13.3032,4.60096,2470.74,2023-9-01T02:33:22Z
2023-09-01T00:34:05Z,42.805,6.029,13.3031,4.60096,2470.693,2023-9-01T02:36:25Z
2023-09-01T00:37:08Z,42.805,6.029,13.3027,4.60097,2470.73,2023-9-01T02:39:28Z
2023-09-01T00:40:11Z,42.805,6.029,13.3030,4.60097,2470.74,2023-9-01T02:42:31Z
2023-09-01T00:43:14Z,42.805,6.029,13.3034,4.60092,2470.717,2023-9-01T02:45:35Z
2023-09-01T00:46:17Z,42.805,6.029,13.3029,4.60095,2470.754,2023-9-01T02:48:38Z
2023-09-01T00:49:20Z,42.805,6.029,13.3029,4.60094,2470.74,2023-9-01T02:51:41Z
2023-09-01T00:52:23Z,42.805,6.029,13.3030,4.60097,2470.693,2023-9-01T02:54:44Z
2023-09-01T00:55:26Z,42.805,6.029,13.3031,4.60095,2470.717,2023-9-01T02:57:47Z
2023-09-01T00:58:29Z,42.805,6.029,13.3028,4.60097,2470.73,2023-9-01T03:00:50Z
2023-09-01T01:01:32Z,42.805,6.029,13.3031,4.60097,2470.693,2023-9-01T03:03:53Z
2023-09-01T01:04:35Z,42.805,6.029,13.3032,4.60096,2470.707,2023-9-01T03:06:56Z
2023-09-01T01:07:38Z,42.805,6.029,13.3028,4.60094,2470.717,2023-9-01T03:09:59Z
2023-09-01T01:10:41Z,42.805,6.029,13.3030,4.60095,2470.717,2023-9-01T03:13:02Z
2023-09-01T01:13:45Z,42.805,6.029,13.3029,4.60094,2470.74,2023-9-01T03:16:05Z
2023-09-01T01:16:48Z,42.805,6.029,13.3029,4.60092,2470.73,2023-9-01T03:19:08Z
2023-09-01T01:19:51Z,42.805,6.029,13.3034,4.60094,2470.693,2023-9-01T03:22:11Z
2023-09-01T01:22:54Z,42.805,6.029,13.3027,4.60095,2470.693,2023-9-01T03:25:15Z
2023-09-01T01:25:57Z,42.805,6.029,13.3030,4.60094,2470.67,2023-9-01T03:28:18Z
2023-09-01T01:29:00Z,42.805,6.029,13.3027,4.60092,2470.707,2023-9-01T03:31:21Z
2023-09-01T01:32:03Z,42.805,6.029,13.3033,4.60094,2470.74,2023-9-01T03:34:24Z
2023-09-01T01:35:06Z,42.805,6.029,13.3028,4.60095,2470.707,2023-9-01T03:37:27Z
2023-09-01T01:38:09Z,42.805,6.029,13.3027,4.60095,2470.707,2023-9-01T03:40:30Z
2023-09-01T01:41:12Z,42.805,6.029,13.3029,4.60093,2470.67,2023-9-01T03:43:33Z
2023-09-01T01:44:15Z,42.805,6.029,13.3029,4.60093,2470.67,2023-9-01T03:46:36Z
2023-09-01T01:47:18Z,42.805,6.029,13.3030,4.60098,2470.67,2023-9-01T03:49:39Z
2023-09-01T01:50:21Z,42.805,6.029,13.3029,4.60094,2470.707,2023-9-01T03:52:42Z
2023-09-01T01:53:25Z,42.805,6.029,13.3029,4.60090,2470.67,2023-9-01T03:55:45Z
2023-09-01T01:56:28Z,42.805,6.029,13.3028,4.60093,2470.67,2023-9-01T03:58:48Z
2023-09-01T01:59:31Z,42.805,6.029,13.3029,4.60092,2470.684,2023-9-01T04:01:51Z
2023-09-01T02:02:34Z,42.805,6.029,13.3028,4.60093,2470.67,2023-9-01T04:04:55Z
2023-09-01T02:05:37Z,42.805,6.029,13.3031,4.60093,2470.67,2023-9-01T04:07:58Z
2023-09-01T02:08:40Z,42.805,6.029,13.3031,4.60093,2470.693,2023-9-01T04:11:01Z
2023-09-01T02:11:43Z,42.805,6.029,13.3032,4.60093,2470.624,2023-9-01T04:14:04Z
2023-09-01T02:14:46Z,42.805,6.029,13.3030,4.60092,2470.661,2023-9-01T04:17:07Z
2023-09-01T02:17:49Z,42.805,6.029,13.3029,4.60092,2470.684,2023-9-01T04:20:10Z
2023-09-01T02:20:52Z,42.805,6.029,13.3026,4.60094,2470.67,2023-9-01T04:23:13Z
2023-09-01T02:23:55Z,42.805,6.029,13.3032,4.60094,2470.67,2023-9-01T04:26:16Z
2023-09-01T02:26:58Z,42.805,6.029,13.3031,4.60093,2470.646,2023-9-01T04:29:19Z
2023-09-01T02:30:02Z,42.805,6.029,13.3030,4.60092,2470.646,2023-9-01T04:32:22Z
2023-09-01T02:33:05Z,42.805,6.029,13.3032,4.60092,2470.646,2023-9-01T04:35:25Z
2023-09-01T02:36:08Z,42.805,6.029,13.3029,4.60092,2470.67,2023-9-01T04:38:28Z
2023-09-01T02:39:11Z,42.805,6.029,13.3029,4.60092,2470.661,2023-9-01T04:41:32Z
2023-09-01T02:42:14Z,42.805,6.029,13.3028,4.60091,2470.661,2023-9-01T04:44:35Z
2023-09-01T02:45:17Z,42.805,6.029,13.3028,4.60092,2470.637,2023-9-01T04:47:38Z
2023-09-01T02:48:20Z,42.805,6.029,13.3033,4.60094,2470.637,2023-9-01T04:50:41Z
2023-09-01T02:51:23Z,42.805,6.029,13.3029,4.60092,2470.614,2023-9-01T04:53:44Z
2023-09-01T02:54:26Z,42.805,6.029,13.3026,4.60091,2470.661,2023-9-01T04:56:47Z
2023-09-01T02:57:29Z,42.805,6.029,13.3030,4.60092,2470.684,2023-9-01T04:59:50Z
2023-09-01T03:00:32Z,42.805,6.029,13.3031,4.60094,2470.661,2023-9-01T05:02:53Z
2023-09-01T03:03:35Z,42.805,6.029,13.3026,4.60093,2470.684,2023-9-01T05:05:56Z
2023-09-01T03:06:38Z,42.805,6.029,13.3030,4.60092,2470.624,2023-9-01T05:08:59Z
2023-09-01T03:09:42Z,42.805,6.029,13.3031,4.60093,2470.661,2023-9-01T05:12:02Z
2023-09-01T03:12:45Z,42.805,6.029,13.3032,4.60093,2470.67,2023-9-01T05:15:05Z
2023-09-01T03:15:48Z,42.805,6.029,13.3028,4.60092,2470.67,2023-9-01T05:18:08Z
2023-09-01T03:18:51Z,42.805,6.029,13.3028,4.60096,2470.646,2023-9-01T05:21:11Z
2023-09-01T03:21:54Z,42.805,6.029,13.3030,4.60092,2470.624,2023-9-01T05:24:15Z
2023-09-01T03:24:57Z,42.805,6.029,13.3026,4.60093,2470.646,2023-9-01T05:27:18Z
2023-09-01T03:28:00Z,42.805,6.029,13.3028,4.60093,2470.67,2023-9-01T05:30:21Z
2023-09-01T03:31:03Z,42.805,6.029,13.3031,4.60092,2470.684,2023-9-01T05:33:24Z
2023-09-01T03:34:06Z,42.805,6.029,13.3027,4.60093,2470.67,2023-9-01T05:36:27Z
2023-09-01T03:37:09Z,42.805,6.029,13.3031,4.60090,2470.684,2023-9-01T05:39:30Z
2023-09-01T03:40:12Z,42.805,6.029,13.3029,4.60092,2470.624,2023-9-01T05:42:33Z
2023-09-01T03:43:15Z,42.805,6.029,13.3031,4.60092,2470.661,2023-9-01T05:45:36Z
2023-09-01T03:46:18Z,42.805,6.029,13.3028,4.60094,2470.646,2023-9-01T05:48:39Z
2023-09-01T03:49:22Z,42.805,6.029,13.3030,4.60094,2470.67,2023-9-01T05:51:42Z
2023-09-01T03:52:25Z,42.805,6.029,13.3030,4.60092,2470.67,2023-9-01T05:54:45Z
2023-09-01T03:55:28Z,42.805,6.029,13.3030,4.60092,2470.67,2023-9-01T05:57:48Z
2023-09-01T03:58:31Z,42.805,6.029,13.3030,4.60092,2470.646,2023-9-01T06:00:52Z
2023-09-01T04:01:34Z,42.805,6.029,13.3029,4.60091,2470.637,2023-9-01T06:03:55Z
2023-09-01T04:04:37Z,42.805,6.029,13.3026,4.60092,2470.67,2023-9-01T06:06:58Z
2023-09-01T04:07:40Z,42.805,6.029,13.3031,4.60092,2470.684,2023-9-01T06:10:01Z
2023-09-01T04:10:43Z,42.805,6.029,13.3029,4.60097,2470.67,2023-9-01T06:13:04Z
2023-09-01T04:13:46Z,42.805,6.029,13.3030,4.60093,2470.693,2023-9-01T06:16:07Z
2023-09-01T04:16:49Z,42.805,6.029,13.3026,4.60092,2470.67,2023-9-01T06:19:10Z
2023-09-01T04:19:52Z,42.805,6.029,13.3026,4.60091,2470.707,2023-9-01T06:22:13Z
2023-09-01T04:22:55Z,42.805,6.029,13.3029,4.60096,2470.693,2023-9-01T06:25:16Z
2023-09-01T04:25:59Z,42.805,6.029,13.3033,4.60092,2470.693,2023-9-01T06:28:19Z
2023-09-01T04:29:02Z,42.805,6.029,13.3029,4.60092,2470.693,2023-9-01T06:31:22Z
2023-09-01T04:32:05Z,42.805,6.029,13.3033,4.60094,2470.693,2023-9-01T06:34:25Z
2023-09-01T04:35:08Z,42.805,6.029,13.3030,4.60092,2470.707,2023-9-01T06:37:29Z
2023-09-01T04:38:11Z,42.805,6.029,13.3033,4.60092,2470.717,2023-9-01T06:40:32Z
2023-09-01T04:41:14Z,42.805,6.029,13.3029,4.60092,2470.73,2023-9-01T06:43:35Z
2023-09-01T04:44:17Z,42.805,6.029,13.3027,4.60094,2470.717,2023-9-01T06:46:38Z
2023-09-01T04:47:20Z,42.805,6.029,13.3032,4.60093,2470.717,2023-9-01T06:49:41Z
2023-09-01T04:50:23Z,42.805,6.029,13.3030,4.60092,2470.707,2023-9-01T06:52:44Z
2023-09-01T04:53:26Z,42.805,6.029,13.3027,4.60094,2470.74,2023-9-01T06:55:47Z
2023-09-01T04:56:29Z,42.805,6.029,13.3031,4.60094,2470.73,2023-9-01T06:58:50Z
2023-09-01T04:59:32Z,42.805,6.029,13.3030,4.60097,2470.693,2023-9-01T07:01:53Z
2023-09-01T05:02:35Z,42.805,6.029,13.3034,4.60094,2470.754,2023-9-01T07:04:56Z
2023-09-01T05:05:39Z,42.805,6.029,13.3029,4.60093,2470.73,2023-9-01T07:07:59Z
2023-09-01T05:08:42Z,42.805,6.029,13.3031,4.60096,2470.763,2023-9-01T07:11:02Z
2023-09-01T05:11:45Z,42.805,6.029,13.3034,4.60095,2470.74,2023-9-01T07:14:05Z
2023-09-01T05:14:48Z,42.805,6.029,13.3028,4.60096,2470.754,2023-9-01T07:17:09Z
2023-09-01T05:17:51Z,42.805,6.029,13.3031,4.60093,2470.74,2023-9-01T07:20:12Z
2023-09-01T05:20:54Z,42.805,6.029,13.3031,4.60093,2470.73,2023-9-01T07:23:15Z
2023-09-01T05:23:57Z,42.805,6.029,13.3029,4.60096,2470.763,2023-9-01T07:26:18Z
2023-09-01T05:27:00Z,42.805,6.029,13.3030,4.60094,2470.777,2023-9-01T07:29:21Z
2023-09-01T05:30:03Z,42.805,6.029,13.3034,4.60096,2470.74,2023-9-01T07:32:24Z
2023-09-01T05:33:06Z,42.805,6.029,13.3035,4.60096,2470.8,2023-9-01T07:35:27Z
2023-09-01T05:36:09Z,42.805,6.029,13.3033,4.60095,2470.763,2023-9-01T07:38:30Z
2023-09-01T05:39:12Z,42.805,6.029,13.3033,4.60092,2470.8,2023-9-01T07:41:33Z
2023-09-01T05:42:15Z,42.805,6.029,13.3029,4.60094,2470.763,2023-9-01T07:44:36Z
2023-09-01T05:45:19Z,42.805,6.029,13.3032,4.60094,2470.8,2023-9-01T07:47:39Z
2023-09-01T05:48:22Z,42.805,6.029,13.3034,4.60095,2470.777,2023-9-01T07:50:42Z
2023-09-01T05:51:25Z,42.805,6.029,13.3032,4.60093,2470.763,2023-9-01T07:53:45Z
2023-09-01T05:54:28Z,42.805,6.029,13.3032,4.60093,2470.777,2023-9-01T07:56:49Z
2023-09-01T05:57:31Z,42.805,6.029,13.3032,4.60093,2470.787,2023-9-01T07:59:52Z
2023-09-01T06:00:34Z,42.805,6.029,13.3032,4.60095,2470.8,2023-9-01T08:02:55Z
2023-09-01T06:03:37Z,42.805,6.029,13.3031,4.60094,2470.787,2023-9-01T08:05:58Z
2023-09-01T06:06:40Z,42.805,6.029,13.3030,4.60094,2470.787,2023-9-01T08:09:01Z
2023-09-01T06:09:43Z,42.805,6.029,13.3031,4.60093,2470.787,2023-9-01T08:12:04Z
2023-09-01T06:12:46Z,42.805,6.029,13.3026,4.60092,2470.787,2023-9-01T08:15:07Z
2023-09-01T06:15:49Z,42.805,6.029,13.3031,4.60093,2470.8,2023-9-01T08:18:10Z
2023-09-01T06:18:52Z,42.805,6.029,13.3031,4.60093,2470.763,2023-9-01T08:21:13Z
2023-09-01T06:21:55Z,42.805,6.029,13.3029,4.60092,2470.81,2023-9-01T08:24:16Z
2023-09-01T06:24:59Z,42.805,6.029,13.3031,4.60093,2470.833,2023-9-01T08:27:19Z
2023-09-01T06:28:02Z,42.805,6.029,13.3034,4.60092,2470.787,2023-9-01T08:30:22Z
2023-09-01T06:31:05Z,42.805,6.029,13.3032,4.60092,2470.81,2023-9-01T08:33:25Z
2023-09-01T06:34:08Z,42.805,6.029,13.3029,4.60094,2470.8,2023-9-01T08:36:29Z
2023-09-01T06:37:11Z,42.805,6.029,13.3030,4.60092,2470.787,2023-9-01T08:39:32Z
2023-09-01T06:40:14Z,42.805,6.029,13.3032,4.60093,2470.824,2023-9-01T08:42:35Z
2023-09-01T06:43:17Z,42.805,6.029,13.3034,4.60092,2470.824,2023-9-01T08:45:38Z
2023-09-01T06:46:20Z,42.805,6.029,13.3034,4.60095,2470.847,2023-9-01T08:48:41Z
2023-09-01T06:49:23Z,42.805,6.029,13.3031,4.60094,2470.824,2023-9-01T08:51:44Z
2023-09-01T06:52:26Z,42.805,6.029,13.3030,4.60092,2470.824,2023-9-01T08:54:47Z
2023-09-01T06:55:29Z,42.805,6.029,13.3028,4.60094,2470.833,2023-9-01T08:57:50Z
2023-09-01T06:58:32Z,42.805,6.029,13.3030,4.60092,2470.81,2023-9-01T09:00:53Z
2023-09-01T07:01:35Z,42.805,6.029,13.3028,4.60092,2470.787,2023-9-01T09:03:56Z
2023-09-01T07:04:39Z,42.805,6.029,13.3029,4.60092,2470.81,2023-9-01T09:06:59Z
2023-09-01T07:07:42Z,42.805,6.029,13.3029,4.60093,2470.824,2023-9-01T09:10:02Z
2023-09-01T07:10:45Z,42.805,6.029,13.3027,4.60093,2470.81,2023-9-01T09:13:05Z
2023-09-01T07:13:48Z,42.805,6.029,13.3025,4.60092,2470.833,2023-9-01T09:16:09Z
2023-09-01T07:16:51Z,42.805,6.029,13.3031,4.60093,2470.81,2023-9-01T09:19:12Z
2023-09-01T07:19:54Z,42.805,6.029,13.3029,4.60092,2470.847,2023-9-01T09:22:15Z
2023-09-01T07:22:57Z,42.805,6.029,13.3029,4.60094,2470.833,2023-9-01T09:25:18Z
2023-09-01T07:26:00Z,42.805,6.029,13.3029,4.60093,2470.81,2023-9-01T09:28:21Z
2023-09-01T07:29:03Z,42.805,6.029,13.3033,4.60092,2470.847,2023-9-01T09:31:24Z
2023-09-01T07:32:06Z,42.805,6.029,13.3030,4.60092,2470.857,2023-9-01T09:34:27Z
2023-09-01T07:35:09Z,42.805,6.029,13.3026,4.60093,2470.833,2023-9-01T09:37:30Z
2023-09-01T07:38:12Z,42.805,6.029,13.3030,4.60094,2470.81,2023-9-01T09:40:33Z
2023-09-01T07:41:16Z,42.805,6.029,13.3029,4.60092,2470.833,2023-9-01T09:43:36Z
2023-09-01T07:44:19Z,42.805,6.029,13.3031,4.60092,2470.857,2023-9-01T09:46:39Z
2023-09-01T07:47:22Z,42.805,6.029,13.3028,4.60094,2470.833,2023-9-01T09:49:42Z
2023-09-01T07:50:25Z,42.805,6.029,13.3031,4.60092,2470.833,2023-9-01T09:52:46Z
2023-09-01T07:53:28Z,42.805,6.029,13.3029,4.60095,2470.857,2023-9-01T09:55:49Z
2023-09-01T07:56:31Z,42.805,6.029,13.3035,4.60094,2470.833,2023-9-01T09:58:52Z
2023-09-01T07:59:34Z,42.805,6.029,13.3029,4.60094,2470.833,2023-9-01T10:01:55Z
2023-09-01T08:02:37Z,42.805,6.029,13.3031,4.60093,2470.81,2023-9-01T10:04:58Z
2023-09-01T08:05:40Z,42.805,6.029,13.3030,4.60093,2470.847,2023-9-01T10:08:01Z
2023-09-01T08:08:43Z,42.805,6.029,13.3029,4.60093,2470.833,2023-9-01T10:11:04Z
2023-09-01T08:11:46Z,42.805,6.029,13.3024,4.60092,2470.857,2023-9-01T10:14:07Z
2023-09-01T08:14:49Z,42.805,6.029,13.3029,4.60092,2470.833,2023-9-01T10:17:10Z
2023-09-01T08:17:53Z,42.805,6.029,13.3032,4.60093,2470.824,2023-9-01T10:20:13Z
2023-09-01T08:20:56Z,42.805,6.029,13.3029,4.60094,2470.81,2023-9-01T10:23:16Z
2023-09-01T08:23:59Z,42.805,6.029,13.3030,4.60093,2470.833,2023-9-01T10:26:19Z
2023-09-01T08:27:02Z,42.805,6.029,13.3029,4.60092,2470.847,2023-9-01T10:29:23Z
2023-09-01T08:30:08Z,42.805,6.029,13.3028,4.60093,2470.81,2023-9-01T10:32:26Z
2023-09-01T08:33:07Z,42.805,6.029,13.3031,4.60093,2470.81,2023-9-01T10:35:28Z
2023-09-01T08:36:10Z,42.805,6.029,13.3026,4.60094,2470.833,2023-9-01T10:38:31Z
2023-09-01T08:39:13Z,42.805,6.029,13.3033,4.60094,2470.833,2023-9-01T10:41:34Z
2023-09-01T08:42:16Z,42.805,6.029,13.3029,4.60093,2470.833,2023-9-01T10:44:37Z
2023-09-01T08:45:19Z,42.805,6.029,13.3029,4.60094,2470.824,2023-9-01T10:47:40Z
2023-09-01T08:48:22Z,42.805,6.029,13.3029,4.60095,2470.88,2023-9-01T10:50:43Z
2023-09-01T08:51:26Z,42.805,6.029,13.3031,4.60092,2470.824,2023-9-01T10:53:46Z
2023-09-01T08:54:29Z,42.805,6.029,13.3031,4.60094,2470.871,2023-9-01T10:56:49Z
2023-09-01T08:57:32Z,42.805,6.029,13.3029,4.60098,2470.81,2023-9-01T10:59:52Z
2023-09-01T09:00:35Z,42.805,6.029,13.3030,4.60092,2470.787,2023-9-01T11:02:56Z
2023-09-01T09:03:38Z,42.805,6.029,13.3031,4.60092,2470.81,2023-9-01T11:05:59Z
2023-09-01T09:06:41Z,42.805,6.029,13.3029,4.60093,2470.8,2023-9-01T11:09:02Z
2023-09-01T09:09:44Z,42.805,6.029,13.3029,4.60093,2470.81,2023-9-01T11:12:05Z
2023-09-01T09:12:47Z,42.805,6.029,13.3027,4.60093,2470.787,2023-9-01T11:15:08Z
2023-09-01T09:15:50Z,42.805,6.029,13.3031,4.60097,2470.787,2023-9-01T11:18:11Z
2023-09-01T09:18:53Z,42.805,6.029,13.3032,4.60093,2470.81,2023-9-01T11:21:14Z
2023-09-01T09:21:56Z,42.805,6.029,13.3027,4.60094,2470.81,2023-9-01T11:24:17Z
2023-09-01T09:24:59Z,42.805,6.029,13.3031,4.60093,2470.8,2023-9-01T11:27:20Z
2023-09-01T09:28:03Z,42.805,6.029,13.3031,4.60095,2470.787,2023-9-01T11:30:23Z
2023-09-01T09:31:06Z,42.805,6.029,13.3031,4.60095,2470.8,2023-9-01T11:33:26Z
2023-09-01T09:34:09Z,42.805,6.029,13.3029,4.60094,2470.824,2023-9-01T11:36:29Z
2023-09-01T09:37:12Z,42.805,6.029,13.3030,4.60094,2470.81,2023-9-01T11:39:33Z
2023-09-01T09:40:15Z,42.805,6.029,13.3028,4.60093,2470.81,2023-9-01T11:42:36Z
2023-09-01T09:43:18Z,42.805,6.029,13.3030,4.60092,2470.824,2023-9-01T11:45:39Z
2023-09-01T09:46:21Z,42.805,6.029,13.3031,4.60093,2470.787,2023-9-01T11:48:42Z
2023-09-01T09:49:24Z,42.805,6.029,13.3029,4.60094,2470.777,2023-9-01T11:51:45Z
2023-09-01T09:52:27Z,42.805,6.029,13.3030,4.60093,2470.8,2023-9-01T11:54:48Z
2023-09-01T09:55:30Z,42.805,6.029,13.3029,4.60093,2470.74,2023-9-01T11:57:51Z
2023-09-01T09:58:33Z,42.805,6.029,13.3032,4.60093,2470.787,2023-9-01T12:00:54Z
2023-09-01T10:01:36Z,42.805,6.029,13.3029,4.60094,2470.763,2023-9-01T12:03:57Z
2023-09-01T10:04:40Z,42.805,6.029,13.3030,4.60093,2470.787,2023-9-01T12:07:00Z
2023-09-01T10:07:43Z,42.805,6.029,13.3029,4.60095,2470.777,2023-9-01T12:10:03Z
2023-09-01T10:10:46Z,42.805,6.029,13.3032,4.60098,2470.8,2023-9-01T12:13:06Z
2023-09-01T10:13:49Z,42.805,6.029,13.3031,4.60095,2470.763,2023-9-01T12:16:10Z
2023-09-01T10:16:52Z,42.805,6.029,13.3034,4.60092,2470.763,2023-9-01T12:19:13Z
2023-09-01T10:19:55Z,42.805,6.029,13.3031,4.60094,2470.74,2023-9-01T12:22:16Z
2023-09-01T10:22:58Z,42.805,6.029,13.3031,4.60095,2470.75,2023-9-01T12:25:19Z
2023-09-01T10:26:01Z,42.805,6.029,13.3034,4.60094,2470.74,2023-9-01T12:28:22Z
2023-09-01T10:29:04Z,42.805,6.029,13.3030,4.60097,2470.74,2023-9-01T12:31:25Z
2023-09-01T10:32:06Z,42.805,6.029,13.3032,4.60093,2470.74,2023-9-01T12:34:26Z
2023-09-01T10:35:09Z,42.805,6.029,13.3032,4.60092,2470.763,2023-9-01T12:37:29Z
2023-09-01T10:38:12Z,42.805,6.029,13.3031,4.60092,2470.717,2023-9-01T12:40:33Z
2023-09-01T10:41:15Z,42.805,6.029,13.3029,4.60093,2470.763,2023-9-01T12:43:36Z
2023-09-01T10:44:18Z,42.805,6.029,13.3031,4.60093,2470.754,2023-9-01T12:46:39Z
2023-09-01T10:47:21Z,42.805,6.029,13.3036,4.60094,2470.754,2023-9-01T12:49:42Z
2023-09-01T10:50:24Z,42.805,6.029,13.3034,4.60093,2470.74,2023-9-01T12:52:45Z
2023-09-01T10:53:27Z,42.805,6.029,13.3032,4.60095,2470.754,2023-9-01T12:55:48Z
2023-09-01T10:56:30Z,42.805,6.029,13.3034,4.60096,2470.763,2023-9-01T12:58:51Z
2023-09-01T10:59:33Z,42.805,6.029,13.3031,4.60094,2470.717,2023-9-01T13:01:54Z
2023-09-01T11:02:36Z,42.805,6.029,13.3029,4.60095,2470.717,2023-9-01T13:04:57Z
2023-09-01T11:05:40Z,42.805,6.029,13.3027,4.60094,2470.74,2023-9-01T13:08:00Z
2023-09-01T11:08:43Z,42.805,6.029,13.3034,4.60095,2470.693,2023-9-01T13:11:03Z
2023-09-01T11:11:46Z,42.805,6.029,13.3029,4.60094,2470.717,2023-9-01T13:14:06Z
2023-09-01T11:14:49Z,42.805,6.029,13.3031,4.60097,2470.707,2023-9-01T13:17:10Z
2023-09-01T11:17:52Z,42.805,6.029,13.3029,4.60094,2470.717,2023-9-01T13:20:13Z
2023-09-01T11:20:55Z,42.805,6.029,13.3031,4.60093,2470.717,2023-9-01T13:23:16Z
2023-09-01T11:23:58Z,42.805,6.029,13.3030,4.60097,2470.693,2023-9-01T13:26:19Z
2023-09-01T11:27:01Z,42.805,6.029,13.3031,4.60096,2470.717,2023-9-01T13:29:22Z
2023-09-01T11:30:04Z,42.805,6.029,13.3029,4.60097,2470.74,2023-9-01T13:32:25Z
2023-09-01T11:33:07Z,42.805,6.029,13.3028,4.60097,2470.717,2023-9-01T13:35:28Z
2023-09-01T11:36:10Z,42.805,6.029,13.3030,4.60099,2470.67,2023-9-01T13:38:31Z
2023-09-01T11:39:13Z,42.805,6.029,13.3027,4.60096,2470.693,2023-9-01T13:41:34Z
2023-09-01T11:42:17Z,42.805,6.029,13.3030,4.60100,2470.703,2023-9-01T13:44:37Z
2023-09-01T11:45:20Z,42.805,6.029,13.3031,4.60103,2470.693,2023-9-01T13:47:40Z
2023-09-01T11:48:23Z,42.805,6.029,13.3031,4.60100,2470.717,2023-9-01T13:50:43Z
2023-09-01T11:51:26Z,42.805,6.029,13.3031,4.60099,2470.693,2023-9-01T13:53:47Z
2023-09-01T11:54:29Z,42.805,6.029,13.3027,4.60102,2470.717,2023-9-01T13:56:50Z
2023-09-01T11:57:32Z,42.805,6.029,13.3030,4.60101,2470.693,2023-9-01T13:59:53Z
2023-09-01T12:00:35Z,42.805,6.029,13.3031,4.60099,2470.67,2023-9-01T14:02:56Z
2023-09-01T12:03:38Z,42.805,6.029,13.3029,4.60097,2470.707,2023-9-01T14:05:59Z
2023-09-01T12:06:41Z,42.805,6.029,13.3032,4.60095,2470.684,2023-9-01T14:09:02Z
2023-09-01T12:09:44Z,42.805,6.029,13.3026,4.60097,2470.693,2023-9-01T14:12:05Z
2023-09-01T12:12:47Z,42.805,6.029,13.3029,4.60097,2470.717,2023-9-01T14:15:08Z
2023-09-01T12:15:50Z,42.805,6.029,13.3030,4.60096,2470.67,2023-9-01T14:18:11Z
2023-09-01T12:18:54Z,42.805,6.029,13.3029,4.60095,2470.684,2023-9-01T14:21:14Z
2023-09-01T12:21:57Z,42.805,6.029,13.3030,4.60094,2470.717,2023-9-01T14:24:17Z
2023-09-01T12:25:00Z,42.805,6.029,13.3031,4.60098,2470.67,2023-9-01T14:27:20Z
2023-09-01T12:28:03Z,42.805,6.029,13.3031,4.60098,2470.646,2023-9-01T14:30:24Z
2023-09-01T12:31:06Z,42.805,6.029,13.3029,4.60099,2470.67,2023-9-01T14:33:27Z
2023-09-01T12:34:09Z,42.805,6.029,13.3028,4.60096,2470.707,2023-9-01T14:36:30Z
2023-09-01T12:37:12Z,42.805,6.029,13.3029,4.60099,2470.684,2023-9-01T14:39:33Z
2023-09-01T12:40:15Z,42.805,6.029,13.3028,4.60098,2470.67,2023-9-01T14:42:36Z
2023-09-01T12:43:18Z,42.805,6.029,13.3031,4.60097,2470.67,2023-9-01T14:45:39Z
2023-09-01T12:46:21Z,42.805,6.029,13.3029,4.60098,2470.661,2023-9-01T14:48:42Z
2023-09-01T12:49:24Z,42.805,6.029,13.3031,4.60097,2470.637,2023-9-01T14:51:45Z
2023-09-01T12:52:27Z,42.805,6.029,13.3026,4.60097,2470.646,2023-9-01T14:54:48Z
2023-09-01T12:55:31Z,42.805,6.029,13.3033,4.60097,2470.67,2023-9-01T14:57:51Z
2023-09-01T12:58:34Z,42.805,6.029,13.3031,4.60101,2470.646,2023-9-01T15:00:54Z
2023-09-01T13:01:37Z,42.805,6.029,13.3034,4.60095,2470.646,2023-9-01T15:03:57Z
2023-09-01T13:04:40Z,42.805,6.029,13.3031,4.60096,2470.624,2023-9-01T15:07:01Z
2023-09-01T13:07:43Z,42.805,6.029,13.3030,4.60092,2470.661,2023-9-01T15:10:04Z
2023-09-01T13:10:46Z,42.805,6.029,13.3030,4.60097,2470.637,2023-9-01T15:13:07Z
2023-09-01T13:13:49Z,42.805,6.029,13.3026,4.60096,2470.624,2023-9-01T15:16:10Z
2023-09-01T13:16:52Z,42.805,6.029,13.3029,4.60099,2470.624,2023-9-01T15:19:13Z
2023-09-01T13:19:55Z,42.805,6.029,13.3031,4.60097,2470.624,2023-9-01T15:22:16Z
2023-09-01T13:22:58Z,42.805,6.029,13.3032,4.60093,2470.624,2023-9-01T15:25:19Z
2023-09-01T13:26:01Z,42.805,6.029,13.3033,4.60096,2470.646,2023-9-01T15:28:22Z
2023-09-01T13:29:04Z,42.805,6.029,13.3030,4.60097,2470.646,2023-9-01T15:31:25Z
2023-09-01T13:32:08Z,42.805,6.029,13.3031,4.60094,2470.646,2023-9-01T15:34:28Z
2023-09-01T13:35:11Z,42.805,6.029,13.3024,4.60092,2470.637,2023-9-01T15:37:31Z
2023-09-01T13:38:14Z,42.805,6.029,13.3031,4.60095,2470.614,2023-9-01T15:40:34Z
2023-09-01T13:41:17Z,42.805,6.029,13.3025,4.60095,2470.624,2023-9-01T15:43:38Z
2023-09-01T13:44:20Z,42.805,6.029,13.3029,4.60093,2470.624,2023-9-01T15:46:41Z
2023-09-01T13:47:23Z,42.805,6.029,13.3033,4.60097,2470.624,2023-9-01T15:49:44Z
2023-09-01T13:50:26Z,42.805,6.029,13.3031,4.60095,2470.646,2023-9-01T15:52:47Z
2023-09-01T13:53:29Z,42.805,6.029,13.3029,4.60096,2470.637,2023-9-01T15:55:50Z
2023-09-01T13:56:32Z,42.805,6.029,13.3029,4.60094,2470.624,2023-9-01T15:58:53Z
2023-09-01T13:59:35Z,42.805,6.029,13.3031,4.60095,2470.6,2023-9-01T16:01:56Z
2023-09-01T14:02:38Z,42.805,6.029,13.3032,4.60095,2470.6,2023-9-01T16:04:59Z
2023-09-01T14:05:41Z,42.805,6.029,13.3029,4.60095,2470.624,2023-9-01T16:08:02Z
2023-09-01T14:08:45Z,42.805,6.029,13.3030,4.60096,2470.624,2023-9-01T16:11:05Z
2023-09-01T14:11:48Z,42.805,6.029,13.3030,4.60093,2470.624,2023-9-01T16:14:08Z
2023-09-01T14:14:51Z,42.805,6.029,13.3029,4.60094,2470.624,2023-9-01T16:17:11Z
2023-09-01T14:17:54Z,42.805,6.029,13.3035,4.60097,2470.624,2023-9-01T16:20:15Z
2023-09-01T14:20:57Z,42.805,6.029,13.3033,4.60095,2470.614,2023-9-01T16:23:18Z
2023-09-01T14:24:00Z,42.805,6.029,13.3026,4.60096,2470.614,2023-9-01T16:26:21Z
2023-09-01T14:27:03Z,42.805,6.029,13.3031,4.60095,2470.6,2023-9-01T16:29:24Z
2023-09-01T14:30:06Z,42.805,6.029,13.3032,4.60095,2470.624,2023-9-01T16:32:27Z
2023-09-01T14:33:09Z,42.805,6.029,13.3030,4.60094,2470.6,2023-9-01T16:35:30Z
2023-09-01T14:36:12Z,42.805,6.029,13.3031,4.60094,2470.614,2023-9-01T16:38:33Z
2023-09-01T14:39:15Z,42.805,6.029,13.3029,4.60096,2470.577,2023-9-01T16:41:36Z
2023-09-01T14:42:18Z,42.805,6.029,13.3028,4.60095,2470.646,2023-9-01T16:44:39Z
2023-09-01T14:45:22Z,42.805,6.029,13.3029,4.60094,2470.61,2023-9-01T16:47:42Z
2023-09-01T14:48:25Z,42.805,6.029,13.3034,4.60096,2470.61,2023-9-01T16:50:45Z
2023-09-01T14:51:28Z,42.805,6.029,13.3029,4.60093,2470.577,2023-9-01T16:53:49Z
2023-09-01T14:54:31Z,42.805,6.029,13.3028,4.60094,2470.6,2023-9-01T16:56:52Z
2023-09-01T14:57:34Z,42.805,6.029,13.3030,4.60094,2470.614,2023-9-01T16:59:55Z
2023-09-01T15:00:37Z,42.805,6.029,13.3034,4.60095,2470.6,2023-9-01T17:02:58Z
2023-09-01T15:03:40Z,42.805,6.029,13.3029,4.60093,2470.577,2023-9-01T17:06:01Z
2023-09-01T15:06:43Z,42.805,6.029,13.3031,4.60097,2470.624,2023-9-01T17:09:04Z
2023-09-01T15:09:46Z,42.805,6.029,13.3029,4.60094,2470.6,2023-9-01T17:12:07Z
2023-09-01T15:12:49Z,42.805,6.029,13.3033,4.60095,2470.586,2023-9-01T17:15:10Z